SCP
0 0 0 0 0 0 -0 0 0 0 -0 -0 0 -0 -0 -0 0 -0 0 0 -0 0 -0 0 -0 -0 -0 -0 -0 -0 -0 -0 -0 -0 -0 -0 -0 -0 -0 -0 -0 -0 -0 -0 -0 -0 -0 0 -0
0 0 0 0 0 0 0 0 0 0 0 -0 0 0 0 -0 0 0 0 0 0 0 -0 -0 0 -0 -0 -0 -0 -0 -0 -0 -0 -0 -0 -0 -0 -0 0 0 -0 -0 -0 -0 -0 -0 -0 -0 -0
0 0 0 0 0 0 0 0 0 0 0 -0 0 -0 0 -0 -0 0 0 0 0 0 -0 -0 -0 -0 -0 -0 -0 -0 -0 -0 -0 -0 -0 -0 -0 -0 -0 0 0 -0 0 0 -0 -0 -0 -0 -0
0 0 0 0 0 0 0 0 0 0 0 0 0 0 -0 0 0 0 0 -0 0 -0 -0 -0 -0 -0 -0 -0 -0 -0 -0 -0 -0 -0 -0 -0 -0 -0 -0 0 0 -0 -0 0 0 -0 -0 -0 -0
0 0 0 0 0 0 0 0 0 0 0 0 0 0 0 0 -0 0 0 -0 -0 -0 -0 -0 -0 -0 -0 -0 -0 -0 -0 -0 -0 -0 -0 -0 -0 -0 -0 -0 -0 0 0 0 0 0 0 0 0
0 0 0 0 0 0 0 0 0 0 0 0 0 0 0 -0 -0 -0 -0 -0 -0 -0 -0 -0 -0 -0 -0 -0 -0 -0 0 -0 0 0 -0 -0 -0 -0 -0 -0 -0 -0 -0 0 0 0 0 0 0
0 0 0 0 0 0 0 0 0 0 0 0 0 0 0 0 0 -0 -0 -0 -0 -0 -0 -0 -0 -0 0 -0 -0 -0 -0 -0 -0 0 0 -0 -0 -0 -0 -0 -0 -0 0 0 0 0 0 0 0
0 0 0 0 0 0 0 0 0 0 0 0 0 0 0 0 0 0 0 0 -0 0 -0 -0 -0 -0 -0 -0 -0 -0 -0 -0 -0 -0 -0 -0 -0 0 0 0 0 0 0 0 0 0 0 0 0
0 0 0 0 0 0 0 0 0 0 0 0 0 0 0 0 0 0 0 -0 -0 0 -0 -0 -0 -0 -0 -0 -0 -0 -0 -0 -0 -0 -0 -0 0 -0 -0 0 0 0 0 0 0 0 0 0 0
0 0 0 0 0 0 0 0 0 0 0 0 0 0 0 0 0 0 0 0 0 -0 -0 -0 -0 -0 -0 -0 -0 -0 -0 -0 -0 -0 -0 -0 -0 0 0 0 0 0 0 0 0 0 0 0 0
0 0 0 0 0 0 0 0 0 0 0 0 0 0 0 0 0 0 0 0 0 0 0 -0 -0 -0 -0 -0 -0 0 0 -0 -0 -0 -0 -0 -0 -0 0 0 0 0 0 0 0 0 0 0 0
0 0 0 0 0 0 0 0 0 0 0 0 0 0 0 0 0 0 0 0 0 0 0 0 0 0 0 0 0 0 0 0 0 0 0 0 0 0 0 0 0 0 0 0 0 0 0 0 0
0 0 0 0 0 0 0 0 0 0 0 0 0 0 0 0 0 0 0 0 0 0 0 0 0 0 0 0 0 0 0 0 0 0 0 0 0 0 0 0 0 0 0 0 0 0 0 0 0
0 0 0 0 0 0 0 0 0 0 0 0 0 0 0 0 0 0 0 0 0 0 0 0 0 0 0 0 0 0 0 0 0 0 0 0 0 0 0 0 0 0 0 0 0 0 0 0 0
0 0 0 0 0 0 0 0 0 0 0 0 0 0 0 0 0 0 0 0 0 0 0 0 0 0 0 0 0 0 0 0 0 0 0 0 0 0 0 0 0 0 0 0 0 0 0 0 0
0 0 0 0 0 0 0 0 0 0 0 0 0 0 0 0 0 0 0 0 0 0 0 0 0 0 0 0 0 0 0 0 0 0 0 0 0 0 0 0 0 0 0 0 0 0 0 0 0
0 0 0 0 0 0 0 0 0 0 0 0 0 0 0 0 0 0 0 0 0 0 0 0 0 0 0 0 0 0 0 0 0 0 0 0 0 0 0 0 0 0 0 0 0 0 0 0 0
0 0 0 0 0 0 0 0 0 0 0 0 0 0 0 0 0 0 0 0 0 0 0 0 0 0 0 0 0 0 0 0 0 0 0 0 0 0 0 0 0 0 0 0 0 0 0 0 0
0 0 0 0 0 0 0 0 0 0 0 0 0 0 0 0 0 0 0 0 0 0 0 0 0 0 0 0 0 0 0 0 0 0 0 0 0 0 0 0 0 0 0 0 0 0 0 0 0
0 0 0 0 0 0 0 0 0 0 0 0 0 0 0 0 0 0 0 0 0 0 0 0 0 0 0 0 0 0 0 0 0 0 0 0 0 0 0 0 0 0 0 0 0 0 0 0 0
0 0 0 0 0 0 0 0 0 0 0 0 0 0 0 0 0 0 0 0 0 0 0 0 0 0 0 0 0 0 0 0 0 0 0 0 0 0 0 0 0 0 0 0 0 0 0 0 0
0 0 0 0 0 0 -0 -0 0 0 0 0 0 0 0 0 0 0 0 0 0 0 0 0 0 0 0 0 0 0 0 0 0 0 0 0 0 0 0 0 0 0 0 0 0 0 0 0 0
0 0 0 0 0 0 0 0 -0 0 0 0 0 0 0 0 0 0 0 0 0 0 0 0 0 0 0 0 0 0 0 0 0 0 0 0 0 0 0 0 0 0 0 0 0 0 0 0 0
0 0 0 0 0 0 0 0 -0 -0 0 0 0 0 0 0 0 0 0 0 0 0 0 0 0 0 0 0 0 0 0 0 0 0 0 0 0 0 0 0 0 0 0 0 0 0 0 0 0
0 0 0 0 0 0 0 0 0 0 0 0 0 0 0 0 0 0 0 0 0 0 0 0 0 0 0 0 0 0 0 0 0 0 0 0 0 0 0 0 0 0 0 0 0 0 0 0 0
0 0 0 0 0 0 0 0 0 0 0 0 0 0 0 0 0 0 0 0 0 0 0 0 0 0 0 0 0 0 0 0 0 0 0 0 0 0 0 0 0 0 0 0 0 0 0 0 0
0 0 0 0 0 0 0 0 0 0 0 0 0 0 0 0 0 0 0 0 0 0 0 0 0 0 0 0 0 0 0 0 0 0 0 0 0 0 0 0 0 0 0 0 0 0 0 0 0
0 0 0 0 0 0 0 0 0 0 0 0 0 0 0 0 0 0 0 0 0 0 0 0 0 0 0 0 0 0 0 0 0 0 0 0 0 0 0 0 0 0 0 0 0 0 0 0 0
0 0 0 0 0 0 0 0 0 0 0 0 0 0 0 0 0 0 0 0 0 0 0 0 0 0 0 0 0 0 0 0 0 0 0 0 0 0 0 0 0 0 0 0 0 0 0 0 0
0 0 0 0 0 0 0 0 0 0 0 0 0 0 0 0 0 0 0 0 0 0 0 0 0 0 0 0 0 0 0 0 0 0 0 0 0 0 0 0 0 0 0 0 0 0 0 0 0
Wind_Speed_500mb
23 10 4 9 4 8 12 5 13 11 17 25 18 28 27 40 13 9 23 19 9 19 18 15 15 15 13 14 16 18 19 18 14 13 9 14 10 4 5 5 11 13 14 19 13 20 11 14 17
21 10 5 11 5 12 8 17 19 17 21 8 16 7 37 24 27 23 19 28 16 13 17 16 12 15 11 11 14 16 18 20 16 12 5 12 11 10 12 14 12 11 10 11 15 17 11 10 11
25 13 8 5 9 6 11 22 16 21 7 6 11 23 17 15 21 13 10 29 20 15 14 9 10 13 9 8 9 11 14 17 16 11 5 10 11 6 3 9 9 9 10 8 11 9 8 3 5
23 7 10 3 20 19 22 19 25 22 21 10 16 20 19 12 6 12 22 26 21 18 11 9 10 12 8 5 4 7 10 11 12 6 6 7 8 3 10 5 5 9 8 6 5 2 3 6 9
10 14 5 10 19 18 19 17 11 17 17 10 26 18 19 17 18 21 26 25 17 15 9 8 9 10 8 2 4 6 8 8 7 5 1 2 11 7 9 9 2 4 5 7 6 5 4 10 5
13 6 5 9 16 16 14 7 4 21 28 10 41 27 14 18 12 20 22 21 17 13 8 7 7 8 6 2 4 7 8 7 4 5 3 9 7 14 18 11 6 3 6 2 5 4 7 9 10
12 8 10 19 16 12 13 7 4 19 31 12 4 16 21 13 14 22 23 15 16 7 8 6 4 8 9 8 6 8 8 9 7 9 5 8 13 13 18 16 10 9 9 6 5 6 6 9 11
12 5 5 6 15 10 9 8 5 22 14 12 10 9 16 16 18 23 23 14 10 9 4 7 7 8 8 10 10 12 13 11 9 9 9 11 13 15 20 20 18 16 13 13 11 10 12 14 14
8 5 6 3 5 16 18 11 4 10 21 19 13 23 25 22 22 20 18 15 12 8 11 8 7 12 13 12 12 14 15 16 16 15 14 13 14 16 14 19 22 21 21 18 18 18 18 18 19
5 3 8 17 20 16 17 8 16 10 21 24 22 22 21 20 19 14 12 1 1 6 8 8 11 14 13 15 17 19 15 15 17 19 21 18 17 15 18 22 19 24 25 25 24 25 25 24 23
3 4 10 10 16 16 16 10 7 11 11 35 34 20 16 17 17 13 10 10 8 3 13 20 14 16 20 22 19 22 22 22 21 22 20 20 20 20 21 27 29 27 25 29 28 29 28 27 27
7 4 6 14 9 5 11 11 9 10 12 22 27 25 16 15 13 10 9 10 9 10 12 18 27 23 22 27 26 25 26 26 26 23 26 26 27 28 31 29 30 31 28 28 26 28 32 27 28
9 9 2 10 9 7 2 5 12 12 8 14 14 19 17 14 14 11 11 13 10 10 10 13 21 26 31 34 29 30 32 32 30 28 28 33 31 32 31 33 33 33 35 35 33 32 35 35 34
17 25 15 7 10 5 4 12 11 17 22 18 22 21 20 19 18 17 22 16 14 18 21 20 22 23 30 37 39 31 33 32 31 34 33 37 39 35 37 37 36 37 37 39 39 39 39 41 41
7 10 1 7 17 9 7 12 20 34 23 25 30 28 25 23 21 23 25 22 24 28 30 32 33 33 36 37 44 44 40 33 40 40 37 41 41 44 40 42 42 41 40 41 42 44 45 46 47
4 11 13 16 28 12 14 10 24 53 41 35 32 33 32 32 23 25 27 27 32 31 36 30 30 32 36 36 38 42 43 46 46 42 40 42 43 47 46 44 48 46 45 45 47 46 48 51 52
9 7 18 16 41 14 15 9 29 28 16 31 31 34 41 31 29 27 30 40 36 37 38 34 34 36 37 38 38 39 42 46 47 49 48 43 40 43 47 51 47 46 47 47 48 52 52 52 53
13 18 15 19 11 7 15 18 25 11 15 25 33 38 34 33 31 26 40 35 31 38 33 32 32 34 37 37 36 36 37 43 43 44 48 52 45 36 43 50 52 47 48 51 53 53 52 53 53
3 8 20 16 10 9 18 23 20 37 35 32 36 36 42 43 36 44 41 34 34 32 26 25 24 24 27 31 33 30 30 29 31 32 40 46 41 38 50 53 53 50 52 53 57 58 57 59 53
17 12 16 5 9 2 15 25 22 28 35 41 47 52 49 43 41 39 27 23 25 21 17 16 16 16 18 21 23 29 28 24 18 20 24 31 37 36 31 40 43 44 48 53 54 55 55 57 58
19 16 13 13 5 8 16 23 31 27 56 52 58 60 55 48 38 24 19 17 20 16 12 11 11 13 15 17 18 14 19 17 16 17 19 15 24 28 31 29 32 34 36 40 44 51 52 53 51
23 16 15 14 8 6 18 11 17 12 28 33 53 60 58 50 32 22 18 19 19 15 9 6 6 8 10 10 10 9 14 17 13 16 17 17 22 26 23 27 27 26 29 31 34 38 42 44 48
11 10 18 17 9 12 20 16 9 15 11 17 36 40 38 40 42 31 29 25 19 15 11 7 3 1 3 4 4 4 9 16 22 26 23 22 22 25 25 25 24 20 34 32 32 34 36 39 42
10 8 6 5 5 16 19 17 11 17 17 11 13 42 37 50 42 36 31 27 23 20 16 12 9 6 6 7 8 7 7 4 3 2 5 9 17 24 26 29 33 34 36 33 37 37 39 40 41
20 18 6 6 8 12 9 21 26 27 10 7 18 26 48 49 46 37 33 30 26 23 20 17 12 8 6 4 4 3 1 3 5 5 7 6 7 12 15 21 26 28 30 35 39 41 40 41 40
26 21 9 13 8 5 16 15 11 3 18 17 8 38 43 44 36 34 35 33 28 25 20 15 11 9 7 6 6 6 8 11 14 15 16 18 19 20 21 22 22 23 24 25 29 33 37 40 42
12 22 13 8 6 3 10 10 17 9 12 9 15 37 44 42 43 42 38 34 31 27 22 18 17 14 12 11 13 14 16 17 17 19 19 21 23 25 25 27 28 29 28 26 25 25 26 29 35
13 10 12 11 7 9 12 13 16 7 17 17 20 29 44 43 42 40 37 37 31 27 25 23 21 17 17 19 21 23 23 23 24 26 27 28 31 33 36 38 39 39 37 35 33 31 31 31 31
21 10 11 9 11 8 5 11 14 5 5 26 30 49 44 43 43 42 40 39 35 32 31 27 23 22 22 22 23 24 23 25 29 31 34 36 36 38 38 36 35 33 29 26 26 26 27 28 30
33 27 22 9 11 8 15 27 9 1 6 8 32 48 52 52 51 47 46 44 40 40 36 34 32 29 27 24 25 26 27 29 33 35 36 37 37 36 34 31 27 23 18 16 15 21 26 31 34
Wind_Direction_500mb
354 8 350 312 288 94 114 82 99 98 79 65 44 69 79 49 24 77 145 140 186 164 140 134 126 123 89 77 64 56 57 53 76 96 60 81 88 133 202 211 163 82 74 117 96 89 90 104 112
359 27 357 272 254 125 99 106 82 77 82 114 55 126 83 71 72 107 135 130 169 139 138 138 137 141 118 82 64 50 52 54 60 112 105 45 77 113 88 90 99 91 99 72 88 68 86 97 125
355 321 294 258 49 39 119 97 105 105 104 135 117 54 39 69 59 107 146 134 140 121 154 144 142 144 135 91 71 48 44 55 62 72 46 57 45 98 107 112 89 89 63 54 70 68 74 83 92
335 241 246 260 82 75 101 100 122 121 112 57 114 93 79 46 100 131 134 136 141 139 162 173 159 154 146 111 76 48 42 47 55 77 61 28 31 338 286 7 142 124 118 130 91 22 103 134 103
310 270 266 75 81 68 73 93 103 87 74 76 105 74 93 59 87 117 130 133 148 163 180 185 167 166 168 139 14 13 24 33 23 33 220 302 335 330 318 312 248 161 154 148 197 290 188 177 110
306 281 273 141 112 98 89 94 81 94 111 98 105 97 81 96 112 125 124 135 145 163 196 186 182 189 199 252 332 342 348 7 349 333 298 262 281 314 333 308 284 321 344 295 321 310 171 191 188
339 328 339 94 122 144 115 188 11 110 106 44 37 90 125 117 124 131 123 145 138 181 192 219 226 219 233 248 269 300 319 331 334 321 304 254 276 286 309 320 285 283 327 319 310 305 235 223 233
326 272 330 134 147 126 123 83 51 23 73 95 34 143 124 143 126 128 135 150 144 183 207 222 259 266 252 250 266 281 289 291 294 286 289 289 280 275 282 288 296 301 301 303 287 281 263 254 257
332 295 222 128 219 117 146 136 78 112 117 77 72 102 132 136 128 130 134 145 164 197 176 235 252 233 250 254 265 283 285 279 280 279 276 276 287 285 282 279 271 278 288 282 282 276 265 264 266
284 275 332 15 53 124 149 182 138 170 130 122 102 116 131 128 123 123 119 113 286 269 279 224 239 287 281 242 262 271 288 270 272 273 272 272 275 276 286 291 287 284 277 276 280 279 264 262 264
166 257 97 58 77 97 141 116 149 243 177 161 151 145 144 144 146 156 167 189 207 285 294 298 274 244 246 272 262 262 271 284 285 288 284 282 273 271 262 267 278 285 294 285 280 279 272 267 267
295 308 322 105 110 91 153 160 209 256 83 124 124 142 160 164 172 171 188 198 218 262 270 262 283 288 269 248 253 262 271 267 267 268 267 272 274 272 273 273 277 281 286 293 289 290 292 289 277
259 245 48 117 159 196 134 202 247 212 198 173 170 187 181 197 200 212 243 252 278 285 286 285 291 280 281 281 268 253 259 262 266 262 256 267 272 271 273 276 275 271 279 283 285 285 284 284 279
351 263 168 170 234 220 219 241 202 246 227 205 206 231 238 223 220 241 256 279 272 267 266 271 256 266 279 278 284 276 265 262 266 262 258 253 269 270 270 273 273 273 271 273 274 274 275 277 276
340 299 193 207 248 241 209 259 243 228 242 237 228 235 232 231 243 259 270 272 279 273 273 274 276 271 263 265 280 285 283 267 260 260 256 260 255 268 268 268 271 275 275 273 271 271 270 269 271
274 269 242 203 213 226 151 251 235 230 225 222 225 227 242 246 250 256 267 277 257 262 278 285 281 276 277 270 265 266 271 277 281 278 270 258 257 255 263 264 265 270 274 275 274 272 270 272 272
231 240 231 259 194 207 175 269 244 229 229 228 240 244 248 247 248 256 265 255 250 262 283 281 276 272 269 268 270 268 268 267 270 277 280 279 274 265 256 257 258 261 265 267 273 276 273 274 275
188 222 265 213 178 224 251 236 279 269 220 250 249 253 253 254 257 263 245 245 262 282 279 279 279 274 270 271 275 274 263 265 267 265 266 273 267 261 260 257 256 256 256 261 263 262 263 266 274
329 296 218 264 151 188 237 255 257 248 205 224 246 249 256 262 263 258 242 253 271 269 275 281 284 283 279 271 269 273 284 287 283 281 279 289 294 274 256 258 259 257 258 260 265 268 268 273 280
261 255 282 262 86 124 289 279 269 249 254 234 231 241 249 253 258 228 227 251 257 254 259 273 290 296 297 290 271 256 245 246 249 263 275 294 298 303 291 268 265 265 261 259 262 266 270 273 272
220 224 255 261 163 265 292 280 253 248 247 237 240 246 247 250 254 197 201 236 241 238 239 257 277 293 296 298 293 270 256 277 294 292 307 313 301 295 303 293 275 273 271 267 264 266 271 273 278
225 213 235 284 305 259 161 286 301 284 230 228 236 242 242 230 229 199 210 218 208 207 216 243 277 299 308 310 291 275 210 209 220 235 243 261 284 288 301 303 299 296 297 289 280 274 273 274 276
226 235 221 227 256 285 264 279 255 239 199 205 226 230 227 213 195 184 195 206 196 195 192 204 204 335 348 348 341 276 224 235 236 249 252 262 267 278 275 285 283 290 289 286 292 292 289 287 286
131 111 153 229 214 245 217 225 228 215 214 218 241 206 186 175 171 185 200 198 196 193 193 192 178 149 113 92 86 80 86 67 51 349 276 255 249 261 270 277 288 287 280 286 287 292 296 288 288
154 148 159 209 212 233 214 208 245 296 317 204 188 184 167 164 175 192 195 199 199 196 198 189 181 172 165 154 129 115 24 335 338 333 310 294 274 271 269 269 268 270 267 272 275 281 281 295 300
190 189 167 184 199 263 174 233 244 32 231 212 214 175 167 171 186 191 196 209 206 205 207 209 223 242 246 252 274 302 311 310 308 307 307 310 313 313 313 312 309 305 300 293 288 285 281 283 278
175 219 235 334 135 89 228 258 306 188 269 275 157 157 170 178 184 197 209 213 213 213 215 225 240 247 258 275 290 299 304 303 300 298 299 302 303 302 303 304 305 306 307 306 305 305 296 292 289
164 150 192 215 209 222 244 241 230 127 204 224 178 189 182 186 199 209 210 215 220 220 227 231 238 250 265 277 284 288 292 292 292 293 292 294 295 294 292 290 290 292 294 297 299 298 303 306 307
195 203 224 173 217 192 256 239 194 150 356 202 203 197 186 194 204 213 217 224 226 227 230 234 240 247 255 262 269 275 281 284 287 291 294 295 295 294 294 295 294 294 298 301 304 312 319 324 328
210 208 202 187 211 248 268 263 306 146 68 15 223 202 198 204 214 220 228 232 234 230 228 232 237 242 246 253 263 271 276 282 287 291 293 296 297 296 297 297 296 298 301 311 342 349 349 349 347
Wind_Speed_850mb
23 10 4 9 4 8 12 5 13 11 17 25 18 28 27 40 13 9 23 19 9 19 18 15 15 15 13 14 16 18 19 18 14 13 9 14 10 4 5 5 11 13 14 19 13 20 11 14 17
21 10 5 11 5 12 8 17 19 17 21 8 16 7 37 24 27 23 19 28 16 13 17 16 12 15 11 11 14 16 18 20 16 12 5 12 11 10 12 14 12 11 10 11 15 17 11 10 11
25 13 8 5 9 6 11 22 16 21 7 6 11 23 17 15 21 13 10 29 20 15 14 9 10 13 9 8 9 11 14 17 16 11 5 10 11 6 3 9 9 9 10 8 11 9 8 3 5
23 7 10 3 20 19 22 19 25 22 21 10 16 20 19 12 6 12 22 26 21 18 11 9 10 12 8 5 4 7 10 11 12 6 6 7 8 3 10 5 5 9 8 6 5 2 3 6 9
10 14 5 10 19 18 19 17 11 17 17 10 26 18 19 17 18 21 26 25 17 15 9 8 9 10 8 2 4 6 8 8 7 5 1 2 11 7 9 9 2 4 5 7 6 5 4 10 5
13 6 5 9 16 16 14 7 4 21 28 10 41 27 14 18 12 20 22 21 17 13 8 7 7 8 6 2 4 7 8 7 4 5 3 9 7 14 18 11 6 3 6 2 5 4 7 9 10
12 8 10 19 16 12 13 7 4 19 31 12 4 16 21 13 14 22 23 15 16 7 8 6 4 8 9 8 6 8 8 9 7 9 5 8 13 13 18 16 10 9 9 6 5 6 6 9 11
12 5 5 6 15 10 9 8 5 22 14 12 10 9 16 16 18 23 23 14 10 9 4 7 7 8 8 10 10 12 13 11 9 9 9 11 13 15 20 20 18 16 13 13 11 10 12 14 14
8 5 6 3 5 16 18 11 4 10 21 19 13 23 25 22 22 20 18 15 12 8 11 8 7 12 13 12 12 14 15 16 16 15 14 13 14 16 14 19 22 21 21 18 18 18 18 18 19
5 3 8 17 20 16 17 8 16 10 21 24 22 22 21 20 19 14 12 1 1 6 8 8 11 14 13 15 17 19 15 15 17 19 21 18 17 15 18 22 19 24 25 25 24 25 25 24 23
3 4 10 10 16 16 16 10 7 11 11 35 34 20 16 17 17 13 10 10 8 3 13 20 14 16 20 22 19 22 22 22 21 22 20 20 20 20 21 27 29 27 25 29 28 29 28 27 27
7 4 6 14 9 5 11 11 9 10 12 22 27 25 16 15 13 10 9 10 9 10 12 18 27 23 22 27 26 25 26 26 26 23 26 26 27 28 31 29 30 31 28 28 26 28 32 27 28
9 9 2 10 9 7 2 5 12 12 8 14 14 19 17 14 14 11 11 13 10 10 10 13 21 26 31 34 29 30 32 32 30 28 28 33 31 32 31 33 33 33 35 35 33 32 35 35 34
17 25 15 7 10 5 4 12 11 17 22 18 22 21 20 19 18 17 22 16 14 18 21 20 22 23 30 37 39 31 33 32 31 34 33 37 39 35 37 37 36 37 37 39 39 39 39 41 41
7 10 1 7 17 9 7 12 20 34 23 25 30 28 25 23 21 23 25 22 24 28 30 32 33 33 36 37 44 44 40 33 40 40 37 41 41 44 40 42 42 41 40 41 42 44 45 46 47
4 11 13 16 28 12 14 10 24 53 41 35 32 33 32 32 23 25 27 27 32 31 36 30 30 32 36 36 38 42 43 46 46 42 40 42 43 47 46 44 48 46 45 45 47 46 48 51 52
9 7 18 16 41 14 15 9 29 28 16 31 31 34 41 31 29 27 30 40 36 37 38 34 34 36 37 38 38 39 42 46 47 49 48 43 40 43 47 51 47 46 47 47 48 52 52 52 53
13 18 15 19 11 7 15 18 25 11 15 25 33 38 34 33 31 26 40 35 31 38 33 32 32 34 37 37 36 36 37 43 43 44 48 52 45 36 43 50 52 47 48 51 53 53 52 53 53
3 8 20 16 10 9 18 23 20 37 35 32 36 36 42 43 36 44 41 34 34 32 26 25 24 24 27 31 33 30 30 29 31 32 40 46 41 38 50 53 53 50 52 53 57 58 57 59 53
17 12 16 5 9 2 15 25 22 28 35 41 47 52 49 43 41 39 27 23 25 21 17 16 16 16 18 21 23 29 28 24 18 20 24 31 37 36 31 40 43 44 48 53 54 55 55 57 58
19 16 13 13 5 8 16 23 31 27 56 52 58 60 55 48 38 24 19 17 20 16 12 11 11 13 15 17 18 14 19 17 16 17 19 15 24 28 31 29 32 34 36 40 44 51 52 53 51
23 16 15 14 8 6 18 11 17 12 28 33 53 60 58 50 32 22 18 19 19 15 9 6 6 8 10 10 10 9 14 17 13 16 17 17 22 26 23 27 27 26 29 31 34 38 42 44 48
11 10 18 17 9 12 20 16 9 15 11 17 36 40 38 40 42 31 29 25 19 15 11 7 3 1 3 4 4 4 9 16 22 26 23 22 22 25 25 25 24 20 34 32 32 34 36 39 42
10 8 6 5 5 16 19 17 11 17 17 11 13 42 37 50 42 36 31 27 23 20 16 12 9 6 6 7 8 7 7 4 3 2 5 9 17 24 26 29 33 34 36 33 37 37 39 40 41
20 18 6 6 8 12 9 21 26 27 10 7 18 26 48 49 46 37 33 30 26 23 20 17 12 8 6 4 4 3 1 3 5 5 7 6 7 12 15 21 26 28 30 35 39 41 40 41 40
26 21 9 13 8 5 16 15 11 3 18 17 8 38 43 44 36 34 35 33 28 25 20 15 11 9 7 6 6 6 8 11 14 15 16 18 19 20 21 22 22 23 24 25 29 33 37 40 42
12 22 13 8 6 3 10 10 17 9 12 9 15 37 44 42 43 42 38 34 31 27 22 18 17 14 12 11 13 14 16 17 17 19 19 21 23 25 25 27 28 29 28 26 25 25 26 29 35
13 10 12 11 7 9 12 13 16 7 17 17 20 29 44 43 42 40 37 37 31 27 25 23 21 17 17 19 21 23 23 23 24 26 27 28 31 33 36 38 39 39 37 35 33 31 31 31 31
21 10 11 9 11 8 5 11 14 5 5 26 30 49 44 43 43 42 40 39 35 32 31 27 23 22 22 22 23 24 23 25 29 31 34 36 36 38 38 36 35 33 29 26 26 26 27 28 30
33 27 22 9 11 8 15 27 9 1 6 8 32 48 52 52 51 47 46 44 40 40 36 34 32 29 27 24 25 26 27 29 33 35 36 37 37 36 34 31 27 23 18 16 15 21 26 31 34
Wind_Direction_850mb
354 8 350 312 288 94 114 82 99 98 79 65 44 69 79 49 24 77 145 140 186 164 140 134 126 123 89 77 64 56 57 53 76 96 60 81 88 133 202 211 163 82 74 117 96 89 90 104 112
359 27 357 272 254 125 99 106 82 77 82 114 55 126 83 71 72 107 135 130 169 139 138 138 137 141 118 82 64 50 52 54 60 112 105 45 77 113 88 90 99 91 99 72 88 68 86 97 125
355 321 294 258 49 39 119 97 105 105 104 135 117 54 39 69 59 107 146 134 140 121 154 144 142 144 135 91 71 48 44 55 62 72 46 57 45 98 107 112 89 89 63 54 70 68 74 83 92
335 241 246 260 82 75 101 100 122 121 112 57 114 93 79 46 100 131 134 136 141 139 162 173 159 154 146 111 76 48 42 47 55 77 61 28 31 338 286 7 142 124 118 130 91 22 103 134 103
310 270 266 75 81 68 73 93 103 87 74 76 105 74 93 59 87 117 130 133 148 163 180 185 167 166 168 139 14 13 24 33 23 33 220 302 335 330 318 312 248 161 154 148 197 290 188 177 110
306 281 273 141 112 98 89 94 81 94 111 98 105 97 81 96 112 125 124 135 145 163 196 186 182 189 199 252 332 342 348 7 349 333 298 262 281 314 333 308 284 321 344 295 321 310 171 191 188
339 328 339 94 122 144 115 188 11 110 106 44 37 90 125 117 124 131 123 145 138 181 192 219 226 219 233 248 269 300 319 331 334 321 304 254 276 286 309 320 285 283 327 319 310 305 235 223 233
326 272 330 134 147 126 123 83 51 23 73 95 34 143 124 143 126 128 135 150 144 183 207 222 259 266 252 250 266 281 289 291 294 286 289 289 280 275 282 288 296 301 301 303 287 281 263 254 257
332 295 222 128 219 117 146 136 78 112 117 77 72 102 132 136 128 130 134 145 164 197 176 235 252 233 250 254 265 283 285 279 280 279 276 276 287 285 282 279 271 278 288 282 282 276 265 264 266
284 275 332 15 53 124 149 182 138 170 130 122 102 116 131 128 123 123 119 113 286 269 279 224 239 287 281 242 262 271 288 270 272 273 272 272 275 276 286 291 287 284 277 276 280 279 264 262 264
166 257 97 58 77 97 141 116 149 243 177 161 151 145 144 144 146 156 167 189 207 285 294 298 274 244 246 272 262 262 271 284 285 288 284 282 273 271 262 267 278 285 294 285 280 279 272 267 267
295 308 322 105 110 91 153 160 209 256 83 124 124 142 160 164 172 171 188 198 218 262 270 262 283 288 269 248 253 262 271 267 267 268 267 272 274 272 273 273 277 281 286 293 289 290 292 289 277
259 245 48 117 159 196 134 202 247 212 198 173 170 187 181 197 200 212 243 252 278 285 286 285 291 280 281 281 268 253 259 262 266 262 256 267 272 271 273 276 275 271 279 283 285 285 284 284 279
351 263 168 170 234 220 219 241 202 246 227 205 206 231 238 223 220 241 256 279 272 267 266 271 256 266 279 278 284 276 265 262 266 262 258 253 269 270 270 273 273 273 271 273 274 274 275 277 276
340 299 193 207 248 241 209 259 243 228 242 237 228 235 232 231 243 259 270 272 279 273 273 274 276 271 263 265 280 285 283 267 260 260 256 260 255 268 268 268 271 275 275 273 271 271 270 269 271
274 269 242 203 213 226 151 251 235 230 225 222 225 227 242 246 250 256 267 277 257 262 278 285 281 276 277 270 265 266 271 277 281 278 270 258 257 255 263 264 265 270 274 275 274 272 270 272 272
231 240 231 259 194 207 175 269 244 229 229 228 240 244 248 247 248 256 265 255 250 262 283 281 276 272 269 268 270 268 268 267 270 277 280 279 274 265 256 257 258 261 265 267 273 276 273 274 275
188 222 265 213 178 224 251 236 279 269 220 250 249 253 253 254 257 263 245 245 262 282 279 279 279 274 270 271 275 274 263 265 267 265 266 273 267 261 260 257 256 256 256 261 263 262 263 266 274
329 296 218 264 151 188 237 255 257 248 205 224 246 249 256 262 263 258 242 253 271 269 275 281 284 283 279 271 269 273 284 287 283 281 279 289 294 274 256 258 259 257 258 260 265 268 268 273 280
261 255 282 262 86 124 289 279 269 249 254 234 231 241 249 253 258 228 227 251 257 254 259 273 290 296 297 290 271 256 245 246 249 263 275 294 298 303 291 268 265 265 261 259 262 266 270 273 272
220 224 255 261 163 265 292 280 253 248 247 237 240 246 247 250 254 197 201 236 241 238 239 257 277 293 296 298 293 270 256 277 294 292 307 313 301 295 303 293 275 273 271 267 264 266 271 273 278
225 213 235 284 305 259 161 286 301 284 230 228 236 242 242 230 229 199 210 218 208 207 216 243 277 299 308 310 291 275 210 209 220 235 243 261 284 288 301 303 299 296 297 289 280 274 273 274 276
226 235 221 227 256 285 264 279 255 239 199 205 226 230 227 213 195 184 195 206 196 195 192 204 204 335 348 348 341 276 224 235 236 249 252 262 267 278 275 285 283 290 289 286 292 292 289 287 286
131 111 153 229 214 245 217 225 228 215 214 218 241 206 186 175 171 185 200 198 196 193 193 192 178 149 113 92 86 80 86 67 51 349 276 255 249 261 270 277 288 287 280 286 287 292 296 288 288
154 148 159 209 212 233 214 208 245 296 317 204 188 184 167 164 175 192 195 199 199 196 198 189 181 172 165 154 129 115 24 335 338 333 310 294 274 271 269 269 268 270 267 272 275 281 281 295 300
190 189 167 184 199 263 174 233 244 32 231 212 214 175 167 171 186 191 196 209 206 205 207 209 223 242 246 252 274 302 311 310 308 307 307 310 313 313 313 312 309 305 300 293 288 285 281 283 278
175 219 235 334 135 89 228 258 306 188 269 275 157 157 170 178 184 197 209 213 213 213 215 225 240 247 258 275 290 299 304 303 300 298 299 302 303 302 303 304 305 306 307 306 305 305 296 292 289
164 150 192 215 209 222 244 241 230 127 204 224 178 189 182 186 199 209 210 215 220 220 227 231 238 250 265 277 284 288 292 292 292 293 292 294 295 294 292 290 290 292 294 297 299 298 303 306 307
195 203 224 173 217 192 256 239 194 150 356 202 203 197 186 194 204 213 217 224 226 227 230 234 240 247 255 262 269 275 281 284 287 291 294 295 295 294 294 295 294 294 298 301 304 312 319 324 328
210 208 202 187 211 248 268 263 306 146 68 15 223 202 198 204 214 220 228 232 234 230 228 232 237 242 246 253 263 271 276 282 287 291 293 296 297 296 297 297 296 298 301 311 342 349 349 349 347